FLOCK 4Q 6

导读

FLOCK 4Q 6是美国Planet公司FLOCK 4系列SuperDove遥感卫星星座的一颗立方体卫星,于2023年11月11日发射入轨。作为“鸽群”星座的补充卫星,它采用3U结构,重约5kg,搭载8光谱波段的光学成像载荷,可提供3米分辨率对地观测数据。该卫星主要服务于农业监测、自然资源管理、城市开发等领域,助力Planet星座维持全球陆地每日成像的重访能力,为各行业提供高频次地球观测信息支撑。

基本信息
目录编号:
58315
目录名称:
FLOCK 4Q 6
国际标识:
2023-174BM
轨道中心:
EARTH
卫星名称:
FLOCK 4Q 6
卫星全名:
--
卫星状态:
已陨落 最后检测时间 2025-11-27
发射日期:
2023-11-11 UTC
国别 :
美国 (US)
星等 :
--
轨道信息
数据来源 国际轨道数据
星历时间: 2025-11-27T07:13:51+0800
轨道信息已过期241天
半长轴: 6530.661km
偏心率: 0.0012881
轨道倾角: 97.357°
近地点辐角 276.884°
升交点赤经 57.965°
平近点角 83.100°
近地点: 144.113km
远地点: 160.939km
周期: 87.538分钟
每日圈数: 16.450046
详细信息
使用方式:
暂无